Temp
15 15 14 14 14 14 14 14 14 14 14 14 14 14 14 15 15 15 15 15 14 14 14 14 14 14 14 14 14 14 14 14 14 14 13 13 13 13 13 14 14 14 15 15 15 14 14 14 14 14 14 14 15 15 15 14 14 14 14 14 13 14
14 14 14 14 14 14 13 14 14 14 14 14 14 14 14 14 15 15 15 14 14 14 13 13 13 13 14 14 14 14 14 14 14 14 14 14 14 13 13 14 14 14 14 14 14 14 14 13 13 14 14 14 15 14 14 15 15 14 14 14 13 14
14 15 14 14 14 14 14 14 14 15 14 14 14 14 14 14 14 15 14 14 14 14 13 13 13 13 13 14 14 14 14 14 14 14 14 14 14 14 14 13 13 14 14 14 13 13 13 13 13 13 14 14 14 14 14 15 15 14 14 14 13 14
14 15 15 14 14 14 14 15 15 15 14 14 14 14 14 14 14 14 14 14 14 13 13 13 14 13 13 13 13 14 14 13 13 13 13 13 13 14 14 13 13 13 13 13 12 12 13 13 13 13 14 14 14 14 14 15 14 14 13 13 14 14
14 15 15 15 15 14 14 14 14 14 14 14 14 14 14 14 14 14 14 14 13 13 13 13 14 13 13 13 13 13 13 13 13 13 14 13 13 13 13 13 13 13 13 12 12 12 13 13 13 13 14 14 14 14 14 14 14 14 13 14 14 15
14 15 15 15 15 15 15 14 14 14 13 14 14 14 14 14 14 14 14 14 13 14 13 13 13 13 13 12 12 13 12 13 13 13 13 13 13 13 13 13 13 12 12 13 13 13 13 13 13 13 13 13 14 14 14 13 14 13 13 14 15 15
15 15 15 15 15 15 15 14 14 14 14 14 15 14 14 14 14 14 14 14 14 13 13 13 13 12 12 12 13 13 12 13 12 13 13 12 13 14 13 13 13 13 13 13 13 13 13 13 13 13 13 13 13 13 13 13 13 13 13 14 14 14
15 15 15 15 15 15 15 15 15 14 14 15 15 14 14 14 14 14 14 14 13 13 13 13 13 13 13 12 13 13 13 13 12 12 13 13 13 13 13 13 13 13 13 12 13 13 13 13 13 13 13 13 13 13 13 13 13 13 13 14 14 14
15 15 15 15 15 14 14 14 15 14 14 14 14 14 13 13 13 14 13 13 13 13 13 13 13 13 13 13 13 13 13 13 13 12 13 13 12 13 13 13 13 12 12 12 12 13 13 13 13 13 13 13 13 13 13 13 13 13 13 13 14 14
15 15 15 14 14 15 14 14 14 14 14 13 13 13 13 13 14 13 13 13 13 13 13 13 13 13 13 13 13 13 13 12 12 12 12 12 12 12 12 12 12 12 12 12 12 13 13 13 13 13 13 13 13 13 13 13 13 13 13 13 14 13
14 15 15 14 14 14 15 14 14 14 14 13 13 13 13 14 14 13 13 13 13 13 13 13 13 13 13 13 12 13 13 13 13 12 12 12 12 13 12 12 12 12 12 12 12 13 13 13 13 13 13 13 13 13 13 13 13 13 13 13 13 13
14 15 14 14 14 14 14 14 14 14 13 13 14 14 14 14 14 13 13 13 13 13 13 13 14 14 13 13 13 13 13 13 13 13 13 13 13 13 13 13 13 13 13 12 12 13 13 13 13 13 13 13 13 13 13 13 13 13 13 13 13 13
14 15 14 14 14 14 14 13 13 13 13 14 14 14 14 14 13 13 13 13 13 13 13 13 14 14 13 13 13 13 13 13 13 13 13 13 13 13 13 13 13 13 13 12 12 13 13 13 13 13 13 13 13 13 13 13 13 13 13 13 13 13
14 15 14 14 14 14 14 14 14 14 14 14 14 14 14 14 13 13 13 13 13 13 13 14 14 14 13 13 13 13 13 13 12 12 12 12 13 13 13 12 12 12 12 12 12 12 13 13 13 13 13 13 13 13 13 13 13 13 13 13 13 13
14 15 14 14 15 14 14 14 14 14 14 14 14 14 14 14 13 13 13 13 13 12 13 14 14 13 13 13 13 13 13 12 12 12 12 12 12 12 12 12 12 12 12 12 12 12 12 13 13 13 13 13 13 13 13 13 13 13 13 13 13 12
15 14 14 15 15 14 14 15 15 14 14 14 14 14 14 13 13 13 13 13 13 13 14 14 14 13 13 13 13 13 12 12 12 12 12 12 12 12 12 12 12 12 12 12 12 12 12 12 13 13 13 13 13 13 12 12 12 12 12 12 12 12
15 15 14 15 15 14 15 15 15 14 14 15 14 14 14 14 14 14 13 13 13 14 14 14 14 14 14 13 13 12 12 12 12 12 12 12 12 12 12 12 12 12 12 12 12 12 12 12 13 13 13 13 13 13 12 12 12 12 12 12 13 13
14 15 15 15 14 14 15 15 15 15 15 15 14 14 14 14 14 14 14 13 13 13 14 14 13 13 13 13 13 13 12 12 12 12 12 12 12 12 12 12 12 12 12 12 12 13 12 12 13 12 12 13 13 13 12 12 13 12 12 12 13 13
14 14 15 15 14 15 15 15 15 15 15 14 14 15 14 14 14 13 13 13 13 13 14 14 13 13 13 13 13 13 13 13 12 12 12 12 12 12 12 12 12 12 12 12 12 12 12 12 12 12 12 13 12 12 12 12 12 12 12 12 13 13
14 14 15 15 15 15 15 15 15 15 14 14 14 14 14 13 14 13 13 13 13 13 13 14 14 13 13 13 13 13 13 13 12 12 12 12 12 12 12 12 12 12 13 12 12 12 12 12 12 12 12 12 12 12 12 12 12 12 12 12 12 13
14 14 15 15 15 15 15 14 14 14 14 14 14 14 13 13 14 14 14 14 13 13 13 13 13 13 13 13 13 13 13 13 12 12 12 12 12 12 12 12 12 12 12 12 12 12 12 12 12 12 12 11 11 12 12 12 12 11 11 11 12 12
14 15 15 15 15 15 15 14 14 14 13 13 13 13 13 13 14 14 14 14 13 13 13 13 13 13 12 12 13 13 13 13 12 12 12 12 12 12 12 12 11 11 12 12 12 12 13 12 12 12 12 12 11 11 12 11 11 11 11 11 11 12
15 15 15 15 15 15 15 15 14 14 13 13 13 13 13 13 13 13 14 13 13 13 13 13 13 13 12 12 12 12 12 12 12 12 12 12 12 12 12 12 12 11 12 12 12 12 12 12 12 12 12 12 12 12 11 11 11 11 11 11 11 11
15 15 15 15 15 14 14 15 15 14 14 13 13 14 13 13 13 13 13 13 13 12 13 13 13 13 13 13 12 12 12 12 12 12 12 12 12 12 12 12 12 12 12 12 12 12 12 12 12 12 12 12 13 12 11 12 12 11 11 11 11 11
15 16 16 15 15 15 15 15 15 14 14 14 14 13 13 13 13 13 12 13 13 13 13 13 13 13 13 13 13 13 12 12 12 12 12 12 12 12 12 12 12 11 12 12 12 12 12 12 12 12 12 12 12 12 11 12 12 11 11 11 11 11
16 16 16 15 15 15 15 15 15 14 14 13 13 13 12 12 12 12 12 13 13 13 12 13 13 12 12 13 13 12 12 12 12 12 12 12 12 12 12 12 11 11 11 11 12 12 12 12 12 12 12 12 12 12 12 12 12 11 11 11 11 11
15 16 16 16 15 15 15 14 14 14 13 13 13 13 13 13 12 13 13 13 13 12 12 12 12 12 12 12 12 12 12 12 12 12 12 12 12 12 12 11 11 11 11 12 12 12 12 12 12 12 12 11 11 12 12 12 13 12 11 11 10 10
15 16 16 16 15 14 14 14 14 13 13 13 13 13 13 13 13 13 13 13 12 12 11 11 12 12 12 12 12 12 12 12 12 12 12 12 12 12 12 11 11 11 11 11 12 12 12 12 11 11 11 11 11 12 12 12 12 13 12 12 10 10
15 15 15 15 15 14 14 14 14 13 13 13 13 13 13 13 13 13 13 13 12 11 11 11 11 11 11 11 11 11 12 12 12 12 12 12 12 12 12 12 12 11 11 11 11 11 12 11 11 11 11 11 11 11 11 11 12 13 13 12 11 10
15 15 15 15 15 15 14 14 14 14 14 14 13 13 13 13 13 13 13 13 12 11 11 11 11 11 11 10 11 11 11 12 12 12 12 12 12 12 12 12 12 12 11 11 11 11 11 11 11 11 11 11 11 11 12 12 12 12 13 13 12 11
15 15 15 15 15 15 14 14 14 14 14 14 13 13 13 13 13 13 13 12 11 11 10 10 10 11 11 11 11 11 11 11 11 12 12 11 12 12 12 12 12 12 11 11 11 11 11 11 11 11 11 11 12 12 12 12 12 12 13 13 12 12
15 15 15 15 15 15 15 14 14 14 14 13 13 13 13 13 13 12 12 12 11 11 11 10 10 10 10 10 10 10 11 11 11 11 11 11 11 11 12 12 12 12 11 11 11 11 11 10 10 11 11 11 11 11 12 12 12 12 12 12 12 12
13 15 15 15 15 15 14 14 14 14 13 13 13 13 13 13 13 12 12 12 12 11 10 10 10 10 10 10 10 10 10 11 11 11 11 11 10 10 11 11 11 11 11 11 11 11 10 10 10 11 11 11 11 11 11 11 12 12 12 12 12 12
11 12 13 14 14 14 14 14 14 14 13 13 13 13 13 13 13 12 12 12 12 11 10 10 10 10 10 10 10 10 10 11 11 11 10 10 10 10 10 10 10 11 11 11 11 11 11 11 11 11 10 11 11 11 11 11 11 12 12 12 12 12
12 11 11 12 14 14 14 14 14 14 13 13 13 13 13 13 13 13 13 12 12 11 11 10 11 11 11 11 11 11 11 11 11 11 11 10 10 10 10 9 10 11 11 11 11 11 11 11 11 11 11 11 11 11 12 11 11 12 12 12 12 12
14 13 12 13 14 14 15 15 15 14 13 13 13 13 13 13 13 13 13 13 12 12 11 11 11 12 11 11 11 11 11 11 11 11 11 11 10 10 10 9 10 11 11 11 11 11 11 11 12 12 12 12 12 12 12 12 11 12 12 12 12 12
14 14 14 14 14 15 15 15 15 14 13 13 13 13 13 13 13 13 13 13 12 12 11 11 12 12 11 11 11 11 11 11 11 11 11 11 10 10 10 10 10 11 11 11 11 11 11 11 12 12 12 12 12 12 12 12 12 12 12 11 11 11
Height
1530 1531 1532 1533 1534 1536 1538 1539 1540 1541 1544 1546 1546 1547 1549 1550 1551 1552 1552 1553 1554 1555 1555 1556 1557 1557 1557 1558 1558 1559 1559 1560 1560 1560 1561 1560 1560 1560 1561 1561 1560 1560 1561 1561 1562 1563 1563 1565 1566 1568 1569 1569 1570 1570 1571 1572 1573 1574 1575 1574 1573 1572
1530 1531 1532 1534 1536 1537 1538 1539 1540 1541 1543 1545 1546 1547 1549 1550 1551 1552 1552 1553 1554 1555 1556 1556 1556 1557 1557 1558 1558 1559 1559 1560 1560 1560 1560 1560 1560 1560 1560 1561 1561 1561 1561 1561 1562 1563 1564 1565 1566 1568 1569 1570 1570 1571 1571 1572 1573 1575 1575 1575 1574 1572
1530 1531 1533 1534 1535 1536 1538 1539 1540 1541 1543 1545 1546 1547 1549 1550 1551 1552 1553 1553 1554 1555 1556 1557 1556 1557 1557 1558 1558 1559 1559 1560 1560 1560 1560 1560 1560 1560 1560 1560 1561 1561 1561 1561 1562 1563 1565 1566 1566 1567 1569 1570 1570 1571 1571 1572 1574 1575 1575 1575 1574 1572
1531 1533 1534 1534 1535 1537 1539 1540 1540 1542 1544 1545 1546 1547 1549 1550 1551 1552 1553 1554 1554 1555 1556 1556 1556 1557 1557 1558 1558 1559 1559 1560 1560 1560 1560 1560 1560 1560 1560 1560 1560 1561 1561 1562 1563 1564 1566 1567 1567 1567 1569 1569 1570 1570 1571 1573 1574 1575 1575 1575 1574 1572
1532 1533 1534 1534 1535 1537 1539 1540 1541 1543 1544 1545 1546 1548 1549 1550 1551 1552 1553 1553 1554 1555 1555 1556 1556 1557 1558 1558 1559 1559 1559 1559 1559 1559 1559 1559 1559 1560 1560 1560 1560 1560 1561 1562 1563 1564 1565 1567 1567 1568 1568 1569 1569 1570 1572 1573 1574 1575 1575 1574 1573 1572
1532 1533 1534 1535 1536 1538 1539 1540 1542 1543 1544 1546 1547 1548 1549 1550 1551 1552 1552 1553 1554 1554 1555 1555 1555 1556 1558 1558 1559 1559 1559 1559 1559 1559 1559 1559 1559 1559 1560 1560 1560 1560 1561 1561 1562 1563 1564 1565 1566 1568 1568 1568 1569 1570 1572 1574 1574 1575 1574 1574 1573 1573
1533 1534 1535 1535 1536 1539 1540 1541 1543 1544 1545 1547 1548 1549 1549 1550 1551 1551 1552 1552 1553 1553 1554 1554 1554 1555 1557 1558 1558 1558 1558 1558 1558 1558 1558 1559 1558 1558 1559 1559 1559 1560 1561 1561 1562 1562 1563 1564 1565 1567 1568 1568 1569 1570 1572 1573 1574 1574 1574 1573 1573 1573
1534 1535 1536 1536 1537 1540 1541 1542 1545 1547 1547 1548 1549 1550 1549 1549 1550 1551 1551 1551 1552 1552 1553 1553 1553 1554 1556 1556 1557 1556 1557 1557 1557 1558 1557 1558 1558 1558 1558 1558 1558 1559 1560 1561 1561 1562 1563 1564 1565 1566 1567 1568 1569 1570 1571 1573 1573 1574 1574 1573 1573 1573
1534 1535 1536 1538 1539 1541 1542 1543 1546 1547 1548 1549 1549 1550 1550 1549 1550 1550 1551 1551 1552 1552 1552 1552 1552 1554 1555 1555 1555 1556 1556 1556 1556 1556 1556 1557 1558 1557 1558 1557 1558 1559 1560 1561 1561 1562 1563 1564 1564 1565 1566 1567 1568 1570 1571 1572 1572 1573 1573 1573 1573 1573
1535 1536 1537 1538 1540 1542 1542 1543 1545 1547 1548 1549 1548 1549 1549 1549 1550 1550 1551 1551 1552 1552 1552 1552 1553 1553 1554 1554 1555 1555 1556 1556 1555 1555 1556 1556 1557 1557 1557 1557 1558 1559 1560 1560 1561 1562 1563 1564 1564 1565 1566 1567 1568 1569 1570 1571 1572 1573 1573 1573 1573 1573
1535 1536 1537 1538 1540 1542 1543 1544 1545 1546 1548 1548 1547 1548 1548 1549 1549 1549 1550 1551 1551 1551 1552 1554 1554 1553 1553 1553 1555 1555 1555 1555 1554 1555 1556 1556 1556 1556 1556 1556 1557 1559 1559 1560 1561 1561 1563 1564 1565 1565 1566 1567 1567 1568 1569 1570 1571 1572 1572 1572 1572 1572
1535 1536 1537 1538 1539 1540 1542 1544 1545 1546 1546 1546 1546 1547 1547 1548 1548 1549 1549 1550 1549 1549 1551 1554 1554 1553 1553 1553 1554 1555 1554 1554 1554 1555 1556 1556 1556 1556 1555 1555 1557 1558 1559 1560 1560 1561 1562 1564 1566 1566 1567 1567 1567 1568 1569 1569 1570 1571 1571 1571 1572 1572
1534 1536 1537 1538 1538 1539 1541 1542 1543 1545 1545 1545 1545 1546 1546 1547 1547 1548 1549 1549 1549 1549 1552 1554 1553 1552 1551 1551 1553 1553 1553 1553 1553 1553 1554 1556 1557 1556 1556 1556 1556 1557 1558 1559 1560 1561 1562 1563 1565 1566 1567 1567 1568 1568 1569 1569 1569 1570 1570 1570 1571 1571
1534 1536 1537 1537 1537 1538 1539 1541 1542 1543 1543 1544 1545 1545 1545 1546 1547 1547 1549 1549 1548 1550 1552 1553 1551 1550 1550 1550 1551 1552 1552 1552 1552 1552 1552 1554 1556 1557 1556 1555 1556 1557 1558 1559 1560 1561 1561 1562 1564 1565 1566 1567 1568 1568 1569 1570 1569 1569 1570 1570 1570 1571
1532 1534 1535 1536 1537 1538 1539 1540 1541 1542 1543 1544 1544 1544 1545 1546 1547 1547 1548 1548 1548 1548 1550 1551 1550 1549 1549 1549 1550 1551 1551 1551 1551 1551 1550 1552 1554 1555 1554 1554 1556 1558 1558 1559 1560 1561 1562 1562 1563 1564 1565 1566 1567 1567 1568 1569 1569 1569 1570 1570 1570 1571
1530 1531 1533 1535 1537 1538 1539 1540 1541 1542 1543 1543 1544 1544 1544 1545 1546 1547 1547 1547 1547 1547 1548 1549 1548 1547 1548 1548 1549 1550 1550 1550 1550 1550 1550 1551 1553 1553 1553 1554 1555 1557 1558 1559 1560 1560 1561 1562 1562 1563 1564 1565 1565 1566 1567 1568 1568 1569 1570 1569 1570 1571
1529 1531 1532 1535 1536 1538 1539 1540 1541 1542 1543 1543 1544 1544 1544 1545 1545 1546 1547 1546 1546 1546 1547 1547 1546 1546 1546 1547 1548 1549 1549 1549 1549 1549 1550 1551 1553 1553 1553 1553 1554 1556 1557 1559 1560 1561 1561 1561 1561 1562 1563 1564 1564 1565 1566 1567 1568 1569 1569 1569 1569 1570
1528 1530 1532 1534 1536 1537 1539 1540 1541 1542 1543 1543 1544 1544 1544 1544 1545 1546 1547 1547 1546 1546 1546 1546 1545 1546 1546 1547 1548 1548 1548 1548 1548 1549 1549 1550 1552 1552 1552 1553 1554 1555 1557 1558 1560 1561 1561 1561 1561 1562 1562 1563 1564 1565 1566 1566 1567 1568 1568 1568 1569 1569
1528 1530 1532 1534 1536 1537 1538 1540 1541 1541 1542 1543 1544 1544 1544 1544 1545 1546 1546 1547 1546 1546 1547 1547 1546 1547 1547 1547 1548 1548 1548 1548 1548 1548 1549 1550 1551 1552 1552 1553 1554 1555 1556 1558 1559 1560 1560 1560 1560 1561 1562 1563 1564 1565 1565 1565 1566 1567 1567 1568 1569 1568
1530 1530 1532 1534 1535 1537 1538 1540 1541 1542 1542 1543 1544 1544 1544 1545 1546 1546 1547 1547 1547 1547 1547 1547 1547 1547 1547 1547 1547 1548 1548 1548 1548 1549 1550 1550 1551 1552 1552 1554 1555 1555 1556 1557 1558 1559 1559 1559 1560 1561 1562 1563 1563 1564 1565 1565 1566 1567 1567 1568 1568 1567
1529 1530 1532 1534 1535 1537 1539 1540 1541 1542 1542 1543 1544 1544 1545 1545 1546 1546 1547 1547 1547 1547 1547 1547 1547 1547 1547 1547 1547 1547 1548 1548 1548 1549 1550 1550 1551 1551 1552 1553 1554 1555 1555 1556 1557 1558 1558 1558 1559 1560 1561 1562 1563 1564 1565 1565 1566 1567 1567 1567 1567 1567
1529 1530 1532 1534 1536 1537 1539 1540 1541 1542 1543 1544 1545 1545 1546 1546 1546 1546 1546 1547 1547 1547 1547 1548 1548 1547 1547 1547 1547 1547 1548 1548 1548 1549 1549 1550 1550 1551 1552 1553 1554 1554 1555 1555 1556 1557 1557 1558 1559 1560 1561 1562 1563 1564 1564 1565 1566 1566 1567 1567 1567 1567
1528 1530 1532 1534 1536 1537 1538 1539 1540 1541 1543 1544 1544 1545 1546 1546 1546 1546 1546 1547 1547 1548 1548 1548 1548 1548 1548 1548 1548 1548 1548 1548 1548 1549 1549 1550 1550 1551 1551 1552 1553 1554 1554 1554 1555 1556 1556 1557 1559 1560 1560 1561 1561 1562 1563 1564 1565 1566 1566 1567 1567 1568
1528 1530 1532 1534 1535 1537 1537 1538 1540 1541 1542 1543 1544 1544 1545 1545 1546 1546 1546 1546 1547 1548 1548 1548 1548 1549 1548 1548 1548 1548 1548 1548 1548 1549 1549 1550 1550 1550 1551 1551 1552 1552 1553 1554 1554 1554 1555 1556 1557 1559 1559 1560 1560 1561 1562 1563 1565 1565 1566 1567 1567 1568
1528 1530 1532 1533 1534 1535 1536 1537 1539 1540 1541 1542 1543 1544 1545 1545 1545 1546 1546 1546 1547 1547 1548 1548 1548 1548 1548 1548 1549 1548 1548 1549 1549 1549 1549 1549 1550 1550 1550 1550 1551 1552 1552 1553 1553 1554 1554 1555 1556 1557 1558 1559 1560 1560 1561 1563 1564 1565 1566 1567 1567 1568
1527 1530 1531 1532 1533 1534 1536 1537 1539 1540 1541 1542 1543 1544 1544 1545 1545 1546 1546 1546 1546 1547 1548 1548 1548 1548 1548 1548 1548 1548 1548 1549 1549 1549 1549 1549 1550 1550 1550 1550 1551 1552 1552 1552 1553 1553 1553 1554 1555 1556 1556 1558 1559 1559 1560 1561 1562 1563 1565 1566 1567 1568
1526 1528 1530 1531 1532 1534 1536 1537 1539 1540 1541 1542 1543 1544 1544 1544 1545 1545 1545 1546 1546 1547 1547 1548 1548 1548 1548 1548 1548 1548 1549 1549 1549 1549 1549 1550 1550 1550 1550 1551 1551 1552 1552 1552 1553 1553 1553 1554 1555 1555 1556 1557 1558 1559 1560 1561 1561 1562 1564 1565 1567 1568
1525 1527 1529 1530 1532 1534 1535 1537 1538 1540 1541 1542 1543 1543 1543 1544 1544 1545 1545 1546 1546 1547 1547 1548 1548 1548 1548 1548 1548 1548 1549 1549 1549 1549 1549 1550 1550 1550 1550 1550 1550 1551 1551 1551 1552 1552 1553 1554 1555 1555 1556 1557 1558 1559 1559 1560 1561 1562 1563 1565 1567 1567
1523 1525 1528 1530 1531 1533 1535 1536 1538 1540 1541 1542 1543 1543 1543 1544 1544 1544 1545 1545 1546 1547 1547 1547 1548 1548 1548 1548 1548 1549 1549 1549 1549 1549 1549 1549 1550 1550 1550 1550 1550 1550 1550 1551 1551 1552 1552 1553 1555 1555 1556 1557 1558 1559 1559 1560 1561 1562 1563 1565 1566 1566
1523 1524 1527 1529 1531 1533 1534 1536 1538 1539 1541 1542 1542 1543 1543 1543 1543 1544 1544 1545 1545 1546 1547 1547 1547 1547 1548 1548 1548 1548 1549 1549 1549 1549 1549 1549 1550 1550 1550 1550 1550 1550 1550 1551 1551 1552 1553 1554 1554 1555 1556 1558 1559 1559 1560 1561 1562 1563 1564 1565 1565 1566
1522 1524 1526 1528 1530 1532 1534 1536 1537 1539 1540 1541 1542 1542 1543 1543 1543 1544 1544 1544 1545 1546 1546 1547 1547 1547 1547 1548 1548 1548 1548 1549 1549 1549 1549 1549 1550 1550 1550 1551 1551 1551 1551 1551 1552 1552 1553 1554 1554 1555 1556 1558 1559 1560 1560 1561 1562 1563 1564 1565 1565 1566
1522 1524 1526 1527 1529 1531 1533 1535 1537 1538 1539 1541 1541 1542 1542 1542 1543 1544 1544 1544 1544 1545 1546 1546 1547 1547 1547 1547 1547 1548 1548 1549 1549 1550 1550 1550 1550 1550 1550 1551 1551 1552 1552 1552 1552 1552 1553 1554 1555 1555 1556 1557 1558 1560 1560 1561 1562 1563 1564 1565 1565 1566
1524 1525 1527 1528 1530 1532 1533 1535 1537 1538 1539 1540 1540 1541 1541 1542 1543 1543 1544 1544 1544 1545 1546 1546 1547 1547 1547 1547 1547 1547 1548 1548 1549 1549 1550 1550 1550 1550 1551 1551 1552 1552 1552 1553 1553 1553 1554 1555 1555 1556 1557 1558 1559 1560 1560 1561 1561 1562 1563 1565 1566 1567
1529 1529 1528 1529 1530 1532 1533 1535 1536 1537 1538 1539 1540 1540 1541 1541 1542 1543 1543 1544 1544 1545 1545 1546 1547 1547 1547 1547 1547 1547 1548 1548 1549 1549 1549 1549 1550 1551 1552 1552 1552 1552 1553 1553 1554 1554 1555 1555 1556 1557 1558 1558 1559 1559 1560 1560 1561 1562 1564 1565 1566 1568
1534 1534 1531 1530 1530 1531 1532 1533 1535 1536 1537 1538 1540 1540 1540 1541 1542 1542 1543 1543 1544 1544 1545 1545 1546 1546 1546 1547 1547 1547 1548 1548 1549 1549 1549 1549 1550 1551 1552 1553 1553 1553 1554 1554 1555 1555 1556 1556 1557 1557 1558 1559 1559 1559 1560 1560 1561 1563 1564 1566 1567 1568
1534 1535 1533 1531 1531 1530 1531 1532 1533 1535 1537 1538 1539 1540 1540 1541 1541 1542 1542 1543 1543 1544 1544 1545 1545 1546 1547 1547 1547 1548 1548 1549 1549 1550 1550 1550 1551 1551 1552 1553 1554 1554 1555 1555 1556 1556 1557 1557 1558 1558 1559 1559 1560 1560 1561 1561 1562 1563 1564 1565 1567 1568
1531 1531 1530 1530 1530 1530 1530 1531 1532 1534 1535 1537 1538 1539 1540 1540 1541 1542 1543 1543 1543 1543 1544 1545 1545 1546 1547 1547 1548 1548 1549 1549 1550 1550 1551 1551 1552 1552 1553 1554 1554 1555 1555 1556 1556 1557 1557 1558 1559 1559 1560 1560 1561 1562 1562 1563 1563 1564 1564 1566 1567 1568
Wind_Speed
18 18 20 20 19 18 17 16 15 13 13 14 14 14 14 14 13 12 11 10 10 10 9 9 9 8 7 6 6 6 6 7 7 6 6 5 4 4 3 3 3 3 3 4 4 5 6 7 8 9 10 11 11 8 6 6 6 6 3 2 4 0
16 17 19 18 17 18 17 16 14 14 15 15 15 15 14 14 13 11 11 10 10 10 9 9 8 8 7 6 6 6 6 6 6 6 6 6 5 5 4 4 3 3 3 2 3 3 4 5 7 7 9 10 9 7 6 7 5 4 3 4 2 2
15 17 16 15 16 17 16 15 14 15 16 16 15 14 14 14 12 11 11 11 10 10 9 9 8 8 7 7 6 5 5 4 4 5 5 5 5 5 5 4 3 3 2 1 1 2 3 4 6 6 7 8 8 7 7 7 5 4 3 4 2 4
14 15 15 15 16 15 15 16 15 16 17 17 15 14 14 13 13 12 12 11 10 10 9 9 8 7 6 6 5 5 4 3 3 4 4 4 4 4 4 3 4 4 1 1 3 4 4 4 5 5 6 7 8 8 7 6 5 4 3 4 2 3
13 14 15 15 14 13 14 15 16 16 16 16 15 15 14 14 13 12 12 11 10 10 10 8 8 7 6 6 5 5 4 4 4 4 5 4 4 4 4 3 3 2 1 2 3 5 6 5 5 5 6 7 8 8 7 6 5 4 3 3 2 2
14 15 15 14 14 14 14 15 16 16 15 14 14 14 14 14 13 12 13 12 11 11 10 9 9 8 7 7 6 5 6 5 5 5 5 6 6 6 5 5 3 3 3 2 2 3 6 6 5 5 6 7 8 8 7 6 5 4 3 3 2 2
14 15 15 14 14 15 15 15 15 15 14 12 12 13 14 14 13 12 12 12 11 11 9 9 9 8 7 7 7 7 7 7 6 6 6 7 7 7 7 6 5 4 3 2 2 2 4 5 6 6 6 7 8 8 7 5 4 4 3 3 2 1
13 13 14 14 13 15 17 17 16 15 14 13 13 13 13 13 13 12 12 11 11 10 10 9 9 9 7 7 7 8 7 7 7 7 7 7 7 7 6 6 6 5 5 4 3 3 4 5 6 7 6 7 8 7 6 6 5 4 3 2 2 1
13 13 14 15 14 14 14 17 17 15 15 15 14 13 12 12 11 11 11 10 9 10 10 10 8 7 7 7 7 7 7 8 8 8 8 7 7 7 6 6 7 7 7 6 5 4 5 6 6 7 7 7 8 8 7 6 5 4 3 2 2 1
13 14 14 14 14 14 13 13 14 13 14 14 12 11 10 10 10 9 9 8 8 10 10 9 8 6 7 8 7 7 7 8 10 9 8 8 8 8 7 7 8 8 7 7 6 5 5 6 6 7 8 7 8 9 8 6 5 4 3 3 2 1
13 14 13 12 13 14 13 13 13 12 11 10 9 8 8 8 9 8 8 9 10 11 10 8 7 7 9 10 8 8 8 9 10 9 8 7 7 8 8 8 9 9 8 7 6 5 6 7 6 6 7 7 7 8 8 7 6 5 4 4 3 2
14 14 13 12 12 12 12 12 11 10 8 7 6 6 6 7 8 9 9 10 13 13 10 7 8 10 11 11 10 9 9 9 9 10 9 7 6 8 8 8 9 9 8 8 6 6 7 7 6 6 6 7 7 6 6 6 6 6 6 5 4 3
13 14 14 12 11 10 9 9 8 7 7 6 6 6 8 8 9 10 10 11 14 11 8 7 8 11 13 12 11 10 9 10 10 11 10 8 9 9 9 8 8 8 8 7 6 6 7 8 7 6 6 6 6 5 5 6 7 7 7 5 4 3
14 15 15 12 11 9 7 6 5 5 6 6 7 8 8 8 8 9 8 10 12 9 8 7 8 11 13 12 11 10 9 11 11 10 9 9 10 10 9 9 8 7 7 6 6 6 6 6 8 7 6 6 5 5 5 5 6 6 5 5 4 4
15 15 14 13 11 8 6 5 4 3 4 4 5 6 6 6 6 6 6 8 9 6 5 6 7 10 11 11 11 11 11 11 10 9 7 7 7 8 8 8 8 7 7 6 6 7 6 6 7 7 7 7 6 6 5 6 7 5 4 4 4 4
15 13 13 12 11 8 7 6 4 3 2 2 2 3 4 5 5 4 4 5 6 5 4 4 7 9 10 11 11 11 10 10 9 8 6 5 6 6 7 8 8 8 7 7 6 7 7 7 9 9 8 8 7 6 5 5 6 5 4 4 3 3
16 14 12 12 10 8 8 7 5 4 4 3 2 3 4 5 6 5 5 5 5 4 4 3 5 7 9 10 10 10 9 9 9 8 6 4 4 5 6 7 8 8 7 6 6 7 7 8 10 11 11 11 10 9 7 6 6 5 5 5 3 4
15 14 12 12 11 10 9 8 6 5 4 3 3 4 4 5 4 4 4 4 3 3 2 1 3 4 7 10 10 9 9 8 8 7 7 5 4 5 5 6 7 8 7 6 6 6 6 8 10 10 11 12 11 11 10 9 9 8 7 7 5 6
14 14 13 13 12 11 10 9 7 6 5 4 3 2 2 2 1 2 3 2 2 2 2 0 2 3 5 8 9 8 9 9 8 6 6 6 6 6 6 6 7 7 8 7 7 7 7 8 9 9 9 11 11 11 10 9 10 10 9 8 7 7
14 14 14 14 13 12 10 8 7 6 5 4 3 3 2 1 2 1 1 1 2 2 2 1 1 2 3 5 7 8 9 9 8 7 6 6 7 7 7 7 7 8 9 9 8 8 9 9 9 9 8 8 8 8 8 8 8 7 5 5 4 3
15 14 15 15 14 12 10 8 7 6 4 5 5 5 4 2 2 1 1 1 0 1 1 1 0 0 2 4 6 7 7 8 9 9 8 8 7 7 6 6 7 8 9 10 9 9 10 10 8 8 7 7 6 6 6 6 5 4 3 3 3 3
16 15 15 15 13 12 10 8 8 7 6 6 6 5 5 3 3 2 1 3 3 1 1 1 1 2 2 3 3 4 5 6 7 8 9 8 7 7 6 6 6 7 9 9 9 9 10 10 9 8 8 7 6 6 6 5 4 4 4 3 3 2
16 15 15 14 13 11 11 10 8 8 8 8 7 6 6 4 4 4 5 6 6 3 2 1 1 1 1 2 2 1 2 4 5 6 6 6 6 6 7 7 7 8 9 9 9 9 10 10 8 7 8 8 8 7 6 6 5 4 4 4 4 3
16 15 15 15 14 11 12 12 9 8 9 8 7 7 7 6 5 6 7 7 7 5 4 2 1 0 1 1 1 1 1 2 3 4 5 5 6 7 7 7 8 9 10 9 9 9 10 12 9 7 7 7 7 8 7 8 7 5 4 4 5 4
17 16 15 16 15 13 12 11 10 9 8 8 7 7 6 6 6 6 7 7 8 7 5 3 2 0 2 2 3 4 4 3 3 3 4 5 5 6 6 7 7 8 8 9 10 8 9 12 11 9 8 5 6 7 7 11 10 7 6 6 6 5
18 17 16 16 14 13 11 10 9 8 8 8 8 7 6 5 6 6 6 7 9 8 6 4 3 1 0 1 1 2 3 4 4 5 5 5 4 5 5 5 6 6 8 10 10 8 9 10 10 10 10 8 7 6 6 11 9 7 8 7 7 6
18 17 15 15 14 13 12 10 9 8 9 9 8 8 6 6 6 5 6 8 8 8 6 4 3 2 2 2 1 1 0 1 3 5 5 5 5 5 4 5 6 7 8 10 9 9 9 9 9 9 10 11 10 7 7 10 8 9 10 8 7 7
17 16 15 14 13 13 12 11 10 9 9 9 8 7 7 7 7 6 7 8 7 7 6 4 3 2 2 2 2 2 2 1 2 3 4 5 5 5 5 6 7 8 9 9 9 8 8 8 8 8 9 10 10 9 8 9 8 8 10 10 8 7
18 17 16 14 12 12 11 11 10 10 9 7 6 7 8 7 8 7 7 7 7 6 4 3 3 3 3 3 3 3 3 2 2 3 4 4 4 4 5 6 7 7 8 9 9 8 8 8 7 8 9 9 7 7 7 9 8 7 8 10 10 9
19 19 17 15 13 12 11 10 10 10 8 6 5 6 7 8 8 8 7 7 7 6 4 3 3 4 4 4 4 4 4 3 3 4 4 4 4 4 4 4 5 6 7 8 10 10 9 9 9 10 10 7 7 7 7 8 9 8 8 8 9 10
19 18 17 16 14 12 12 11 11 10 8 6 5 6 6 8 8 8 7 7 7 6 5 4 4 5 5 4 4 5 6 4 4 5 4 4 4 4 4 4 4 5 6 7 9 11 11 11 10 10 9 7 7 8 7 8 9 9 9 8 10 11
20 18 17 16 13 12 12 12 12 12 10 7 6 7 7 8 8 8 7 7 7 6 5 5 5 5 6 5 4 6 8 6 5 5 4 4 3 4 5 5 5 5 5 6 7 9 10 11 10 10 10 9 9 8 7 7 8 9 8 8 9 10
17 17 16 15 13 12 12 10 11 12 9 7 7 8 7 7 8 8 7 7 7 6 5 5 6 5 6 6 5 7 9 8 6 6 5 4 4 5 6 5 6 6 5 6 6 7 8 10 10 9 9 8 8 7 6 7 7 7 7 8 9 9
8 10 12 14 13 12 10 8 9 11 9 8 7 8 7 7 8 8 6 6 7 7 7 6 7 7 7 7 7 9 10 9 8 7 6 6 6 8 8 6 6 6 6 7 7 8 9 9 10 10 9 8 8 8 7 7 7 7 7 7 8 8
7 6 6 11 11 8 7 7 10 12 10 9 8 7 7 6 5 4 4 6 7 8 8 8 9 9 9 9 9 10 11 10 9 8 8 8 8 9 9 7 5 6 7 8 9 9 10 10 10 11 10 9 9 8 8 8 8 7 6 6 7 8
8 11 10 9 9 7 7 8 11 13 12 11 10 7 5 4 2 1 3 6 7 8 10 10 12 12 10 10 11 11 11 11 11 10 10 11 10 10 10 8 7 9 10 11 11 11 11 11 11 11 11 11 11 11 11 10 9 9 9 7 8 8
8 13 12 11 9 8 8 10 12 15 14 13 12 8 4 2 2 3 5 7 8 9 11 11 13 13 11 11 11 11 11 11 11 10 10 11 11 12 12 11 10 11 12 12 12 13 13 13 14 14 14 14 14 13 14 13 12 12 12 10 8 8
Wind_Direction
182 186 188 193 191 184 181 176 170 172 185 187 181 179 174 173 174 173 172 171 174 174 169 168 170 166 163 160 158 159 158 159 163 168 179 195 209 220 228 241 262 269 267 248 235 236 232 220 197 170 163 166 159 161 164 163 148 121 132 99 113 147
180 183 187 191 185 183 183 177 173 177 184 185 181 177 173 176 176 174 173 170 174 170 163 167 170 165 164 166 166 170 168 168 170 173 179 189 206 216 228 238 256 268 271 255 231 223 226 230 216 182 162 162 163 167 175 181 156 122 122 107 156 299
183 182 183 185 182 186 184 177 178 184 186 183 181 179 176 179 179 177 175 173 173 165 160 168 172 165 167 171 169 171 170 177 187 190 189 192 205 213 229 242 258 275 287 266 177 169 174 206 219 195 167 166 175 178 181 188 159 138 123 118 231 309
182 181 184 189 189 188 181 177 182 187 189 182 178 179 179 182 182 180 179 177 173 169 166 171 173 165 168 171 171 172 165 172 194 206 199 189 200 207 221 242 272 288 291 140 144 151 160 186 206 195 184 183 188 184 179 181 152 144 137 131 225 312
178 182 189 195 192 188 181 179 185 189 189 180 174 177 181 183 183 182 183 179 176 176 171 173 170 160 162 164 169 175 170 170 183 208 198 182 193 196 200 216 260 272 199 166 156 159 166 184 198 191 198 193 188 185 171 170 164 154 159 174 234 323
182 182 185 192 190 187 186 183 187 190 190 183 172 176 183 184 183 184 186 184 183 182 176 180 172 161 166 167 173 177 182 189 191 209 195 184 198 195 191 195 203 212 201 186 159 157 165 177 186 187 197 190 184 182 166 168 175 158 180 226 258 325
186 180 179 190 190 184 188 190 192 192 191 192 182 183 187 184 185 186 190 191 191 188 182 189 178 165 171 173 184 186 191 200 194 206 198 192 205 195 188 192 195 203 197 163 131 115 149 173 179 177 185 184 181 179 169 168 171 160 184 229 250 306
182 178 179 189 191 185 184 182 190 195 193 194 192 193 190 186 191 193 196 198 196 195 191 201 190 172 182 189 197 198 199 204 194 202 205 197 203 195 187 194 189 179 165 154 143 126 146 170 176 170 171 178 177 174 172 168 171 173 179 221 241 261
177 181 186 189 189 189 185 176 181 192 196 197 194 195 194 189 195 198 202 204 204 207 203 213 203 179 200 211 212 207 202 208 202 206 210 198 197 191 184 184 175 167 163 156 150 144 154 167 174 171 164 169 172 167 169 171 176 181 184 216 236 233
177 183 189 189 184 185 191 187 184 190 198 199 193 194 195 191 198 202 207 209 213 221 219 221 209 192 221 229 225 218 210 214 211 210 208 198 195 185 177 177 166 163 164 155 151 146 155 165 170 173 163 162 170 164 164 172 177 178 187 208 215 206
180 184 186 190 187 181 185 192 190 190 195 195 194 201 202 198 208 213 216 222 226 232 230 228 227 230 242 241 232 229 231 230 223 220 213 201 196 185 176 172 165 165 162 155 153 141 148 163 169 173 166 170 177 170 172 182 185 185 186 195 202 204
181 184 185 190 194 185 179 183 183 182 189 197 203 214 219 218 224 229 231 238 239 235 229 231 246 253 254 250 242 239 243 240 234 229 222 209 201 194 180 167 166 167 161 157 154 146 151 160 168 172 173 182 184 178 187 196 198 198 195 196 198 203
181 184 187 189 191 187 179 177 175 178 197 217 222 225 230 230 237 246 246 249 253 251 247 248 252 251 249 248 246 245 244 242 237 228 218 207 201 195 180 163 163 165 162 162 158 156 156 158 166 171 177 185 186 186 192 205 208 200 193 195 197 195
185 185 186 187 185 183 180 173 178 194 212 221 224 232 238 236 244 260 262 263 271 274 266 259 252 247 246 246 246 244 244 244 241 233 220 208 198 189 176 158 154 164 167 163 162 163 159 164 171 174 183 182 190 197 189 203 211 200 196 204 200 174
190 184 180 187 182 178 178 170 183 208 231 231 234 252 257 249 249 266 274 278 287 287 274 260 247 244 242 241 240 240 242 240 239 238 228 214 199 180 167 151 147 163 172 169 172 169 163 181 188 189 198 190 194 205 195 211 215 203 215 220 197 168
190 184 181 187 181 179 183 174 182 194 221 233 235 267 274 276 276 286 292 300 305 306 310 274 243 243 242 236 234 236 238 238 237 236 232 222 205 177 157 156 158 164 176 184 190 189 183 199 209 210 215 211 212 216 203 216 217 200 215 211 176 165
187 185 184 187 181 181 181 170 178 183 190 195 200 242 269 292 301 309 314 322 319 323 343 311 254 249 240 231 228 228 229 234 238 236 233 226 209 185 166 167 171 172 181 189 197 201 198 211 221 222 222 220 220 220 210 216 220 210 219 219 194 193
183 185 183 186 184 183 177 170 178 183 186 187 211 245 260 275 292 315 321 322 323 342 9 334 249 241 230 228 225 223 222 221 230 236 235 232 220 206 188 175 182 189 189 190 195 193 191 207 218 218 220 220 220 223 223 228 232 231 236 243 244 239
182 184 185 186 186 185 178 177 183 179 171 166 175 199 242 270 301 344 338 333 334 352 18 48 233 235 224 227 224 222 226 221 224 232 234 238 235 225 212 196 194 201 202 198 195 192 196 203 204 202 206 211 214 218 220 224 232 237 244 248 249 246
187 183 186 186 186 185 178 177 174 162 152 140 132 120 114 67 74 73 36 18 348 349 7 350 280 262 231 235 233 228 229 229 231 236 235 236 240 237 223 209 204 208 211 207 203 203 206 206 205 203 199 198 199 202 203 204 215 228 237 233 225 230
190 183 184 186 184 181 171 164 154 145 141 127 114 102 98 90 91 124 172 128 69 335 351 8 27 210 211 226 240 240 237 237 238 241 242 237 241 245 232 219 215 211 209 206 207 211 211 206 201 194 185 185 184 185 187 183 189 193 176 180 195 212
190 186 185 184 178 170 157 146 145 145 142 132 120 111 109 101 82 58 79 117 121 116 33 30 75 98 127 169 205 235 243 245 242 243 248 245 244 244 237 233 222 214 216 214 215 219 212 200 195 186 172 170 175 178 178 168 172 180 171 164 163 182
189 185 183 180 171 166 154 140 142 148 146 141 127 118 115 99 77 71 78 98 108 113 108 91 88 116 117 125 132 168 226 237 238 238 241 241 244 240 236 236 222 217 228 231 227 225 210 194 192 189 179 183 185 177 172 173 175 174 170 156 135 126
184 182 182 180 171 167 161 149 146 146 142 142 129 108 98 87 81 84 84 93 105 108 107 109 94 223 218 203 171 186 230 241 235 234 233 237 243 242 238 235 228 223 229 235 234 227 209 197 196 192 194 203 191 185 186 176 162 145 137 125 118 123
181 181 184 183 174 165 162 156 151 146 137 135 122 105 98 88 83 89 89 93 104 106 104 113 114 162 239 230 223 220 224 235 240 237 237 243 245 244 242 231 225 222 221 226 231 229 210 202 203 199 203 207 190 200 192 165 148 130 128 119 110 115
180 182 185 185 179 167 162 159 148 137 133 136 130 120 118 106 97 104 103 100 105 110 112 115 120 133 305 6 248 230 220 220 233 239 235 236 234 242 248 225 209 207 214 225 229 227 212 203 207 206 208 210 203 205 174 164 160 138 132 119 105 105
184 185 185 187 184 172 168 164 145 130 132 139 139 128 117 106 105 104 93 94 99 104 110 112 112 108 75 71 71 40 141 200 222 234 233 230 232 241 236 207 194 192 209 224 218 213 213 208 209 211 214 217 215 210 179 175 178 154 142 128 115 113
192 190 188 190 188 181 177 165 147 146 148 144 138 117 100 92 92 86 78 87 96 99 108 120 124 120 111 130 141 114 108 148 193 206 214 215 220 225 218 210 206 196 202 213 206 207 216 210 208 208 208 211 216 220 203 184 180 169 155 146 137 124
199 197 193 193 191 190 185 165 156 166 164 149 131 105 95 92 88 85 77 83 99 107 114 128 135 143 144 144 142 128 128 145 165 181 190 190 194 201 201 206 208 200 198 196 192 203 210 199 198 199 193 193 198 204 198 182 177 177 163 151 143 133
203 202 198 194 192 196 189 169 167 176 169 146 124 107 99 97 94 93 87 86 100 113 119 124 129 139 143 137 141 137 132 142 160 176 177 169 180 185 177 183 189 190 190 184 183 188 190 188 194 193 182 181 185 177 174 177 177 177 172 158 146 142
204 202 200 196 193 197 192 180 174 168 160 145 128 116 101 98 101 103 99 99 111 124 130 136 132 134 141 143 149 146 138 142 154 164 169 169 180 178 175 189 187 181 182 184 184 180 178 181 185 184 174 172 180 174 174 180 180 182 180 166 152 146
209 203 199 197 195 197 195 188 177 163 159 160 145 128 110 104 110 113 111 110 116 124 127 132 132 137 149 150 147 146 143 143 148 155 164 168 170 167 170 178 177 175 173 176 181 178 179 179 173 174 175 173 176 177 179 181 180 184 180 168 159 152
211 205 201 199 195 196 195 190 179 166 163 172 160 141 129 118 118 121 120 117 118 127 132 134 136 140 146 144 139 144 145 145 150 158 164 163 162 160 153 150 156 155 149 153 157 161 170 170 163 165 165 159 158 158 155 155 158 163 161 157 158 155
219 206 195 192 192 191 190 188 183 176 173 180 175 154 141 129 125 124 125 126 127 136 141 142 148 147 141 138 141 148 148 151 158 162 161 155 154 154 141 128 139 138 132 138 139 143 151 151 151 153 147 142 146 149 148 146 141 137 145 153 160 161
274 253 209 194 198 199 204 207 194 190 188 189 187 162 138 132 137 138 144 145 139 141 144 146 153 150 136 130 135 141 144 147 149 144 141 136 132 143 139 124 129 136 133 133 132 136 139 140 145 148 147 145 146 148 148 145 136 133 143 154 161 166
255 259 250 226 225 230 240 239 213 203 201 200 197 176 146 144 167 185 164 154 145 142 143 147 154 148 134 130 131 134 136 136 136 131 130 128 124 134 139 132 136 140 136 132 131 134 135 138 142 142 143 140 138 142 142 138 137 142 146 147 151 159
221 246 246 237 239 241 249 250 231 221 219 215 207 198 185 188 211 201 168 152 143 139 137 144 154 150 141 138 135 136 136 135 134 131 131 129 128 134 137 138 144 145 142 139 137 138 138 140 140 137 137 136 133 134 131 128 129 133 135 134 140 150